Temperature
28 25 24 25 25 26 26 26 26 26 27 26 25 24 24 25 24 24 23 23 22 22 22 22 22 22 21 21 21 20 20 20 20 20 20 19 19 19 19 19 19 19 19 19
25 25 27 28 28 27 27 26 26 26 28 26 25 25 25 25 24 24 24 23 23 22 22 22 22 22 22 21 21 21 20 20 20 20 20 20 19 19 19 19 19 19 19 19
26 27 28 29 28 27 27 26 26 26 27 26 26 24 24 25 25 25 24 24 23 23 23 22 22 22 22 21 21 21 20 20 20 20 20 19 19 19 19 19 19 19 19 19
26 28 29 28 28 28 26 28 28 28 25 24 25 23 24 24 24 24 24 24 23 23 23 23 22 22 22 22 21 21 21 20 20 20 20 20 20 19 19 19 19 19 19 19
26 28 28 28 29 29 28 29 28 27 25 24 24 23 23 23 23 24 24 24 24 24 23 23 23 22 22 22 21 21 21 20 20 20 20 20 20 20 19 19 19 19 19 19
27 28 29 29 30 29 29 27 26 23 22 23 24 23 23 23 24 24 24 24 24 24 23 23 23 23 22 22 21 21 21 21 20 20 20 20 20 19 19 19 19 19 19 19
27 27 29 29 28 28 27 24 23 23 22 22 23 24 23 24 25 24 24 24 24 24 23 23 23 22 22 22 21 21 21 21 20 20 20 20 20 20 19 19 19 19 19 19
25 25 28 29 28 27 26 24 23 23 22 22 23 23 23 25 25 25 25 25 24 24 23 23 23 23 22 22 22 22 21 21 21 20 20 20 20 20 19 19 19 19 19 19
24 25 28 29 29 28 27 25 23 21 22 22 22 23 24 24 24 24 24 24 24 24 23 23 23 23 22 22 22 22 22 21 21 21 20 20 20 20 20 19 19 19 19 19
25 26 26 28 28 27 27 25 22 21 22 22 23 23 22 23 23 23 22 23 23 23 23 23 23 23 22 22 22 22 22 21 21 21 20 20 20 20 20 19 19 19 19 19
24 24 25 26 26 26 26 25 22 20 20 21 22 22 23 22 22 22 22 23 23 23 23 23 23 22 22 22 22 22 21 21 21 21 20 20 20 20 19 19 19 19 19 19
23 21 22 24 25 26 26 25 22 22 21 19 20 21 24 22 22 23 23 23 23 23 23 23 23 22 22 22 22 22 21 21 21 20 20 20 20 20 19 19 19 19 19 19
23 21 21 22 23 24 25 25 23 20 19 19 20 21 23 22 22 23 23 23 23 23 23 22 22 22 21 21 21 21 21 21 21 20 20 20 20 19 19 19 19 19 19 18
24 20 21 22 22 23 24 25 24 22 20 20 21 21 22 22 21 22 22 23 23 23 22 22 22 22 21 21 21 21 21 21 20 20 20 20 20 19 19 19 19 19 19 18
22 21 22 22 24 25 25 25 25 23 22 21 21 21 21 21 21 22 22 22 22 22 22 22 22 21 21 21 21 21 20 20 20 20 19 19 19 19 19 19 19 19 19 18
20 22 22 23 24 24 24 24 24 24 23 22 22 21 21 22 22 22 22 22 21 22 22 22 21 21 21 21 20 20 20 20 20 20 19 19 19 19 19 18 18 18 18 18
20 20 20 21 22 23 22 23 24 23 22 22 21 21 20 20 21 21 21 21 21 21 21 21 21 21 21 20 20 20 20 20 20 19 19 19 19 18 18 18 18 18 18 17
19 19 17 19 21 22 21 22 24 23 22 21 21 21 21 21 21 21 21 21 21 21 21 21 21 21 20 20 20 20 19 19 19 19 19 19 18 18 18 18 17 17 17 17
19 18 18 17 19 20 21 22 22 22 20 21 21 20 21 21 20 20 20 21 21 21 21 21 21 20 20 19 19 19 19 19 18 18 18 18 18 18 18 17 17 17 17 17
18 18 17 17 19 19 20 22 23 21 19 20 20 19 20 20 17 18 20 20 20 20 20 20 20 20 19 19 19 18 18 18 18 18 18 18 18 18 17 17 17 17 17 16
19 18 18 18 18 19 20 22 22 20 18 20 20 20 20 19 19 20 20 20 20 19 19 19 19 19 19 19 18 18 18 18 17 17 17 17 17 17 17 17 17 16 16 16
17 17 17 16 17 18 20 20 19 18 20 20 20 20 20 20 20 19 19 19 19 19 19 19 18 18 18 18 18 17 17 17 17 17 16 16 16 16 16 16 16 16 16 16
16 16 15 16 16 18 19 20 20 20 20 20 20 20 20 19 19 19 19 18 18 18 18 18 18 17 17 17 17 17 17 16 16 16 16 16 16 16 15 15 15 15 15 15
16 16 15 15 16 18 19 20 20 20 20 20 20 19 19 19 19 18 18 18 18 17 17 17 17 17 17 16 16 16 16 16 16 15 15 15 15 15 15 15 15 15 15 15
17 16 15 15 16 17 18 19 19 19 19 19 19 19 19 18 18 18 17 17 17 17 16 16 16 16 16 16 15 15 15 15 15 15 15 15 15 14 14 14 14 14 14 14
15 15 14 14 16 15 17 18 19 19 18 18 18 18 18 18 17 17 17 16 16 16 16 16 15 15 15 15 15 15 15 14 14 14 14 14 14 14 14 14 14 14 14 14
Wind_Speed
2 3 3 7 8 8 6 4 4 5 5 3 6 9 11 12 12 12 12 12 13 13 11 11 12 13 11 10 9 9 8 7 6 4 3 3 2 2 2 3 6 7 6 6
4 4 10 7 5 5 5 5 5 5 5 5 5 6 10 13 15 15 16 15 15 12 10 11 11 12 12 12 10 9 9 8 7 5 4 3 3 2 2 3 4 7 7 6
6 9 6 3 3 3 6 7 6 4 1 2 5 1 5 7 8 10 13 14 15 17 16 14 13 13 12 13 13 11 9 8 7 6 3 2 1 0 0 2 3 4 7 6
6 7 4 4 6 5 6 9 7 4 2 1 2 2 5 7 7 11 12 12 13 14 14 14 14 14 14 13 12 10 10 8 7 7 5 5 4 4 4 4 3 4 5 6
6 4 3 5 7 5 7 6 5 4 3 1 1 2 5 3 6 10 12 14 14 14 15 16 15 15 13 12 11 10 9 8 8 7 7 6 5 4 3 3 4 4 4 5
7 5 5 7 7 4 2 3 4 4 5 1 4 3 4 4 9 8 9 12 13 13 13 13 12 12 11 11 10 10 9 8 8 8 8 8 7 6 4 4 4 4 3 3
6 7 5 3 3 5 5 6 4 5 4 4 4 2 5 6 7 8 9 10 11 12 12 12 12 12 12 12 11 10 10 9 9 8 8 8 7 7 7 6 6 5 4 4
2 6 5 2 4 4 2 8 7 5 4 4 4 1 5 3 4 6 7 8 10 11 11 12 13 13 13 13 12 11 11 10 9 9 9 7 7 5 5 5 5 5 5 5
5 5 5 3 2 5 2 2 8 7 3 1 3 2 4 4 6 5 6 7 8 9 10 10 10 10 10 12 12 12 12 10 10 10 8 7 7 6 6 5 5 4 4 5
7 3 6 5 4 3 3 4 6 5 4 2 3 2 4 4 4 5 6 6 7 8 8 8 8 8 7 8 9 10 10 11 9 9 8 8 7 7 6 5 5 5 5 5
5 4 5 4 1 2 1 2 4 4 6 6 3 5 5 8 7 8 7 6 7 8 9 8 7 7 6 6 6 6 8 8 8 9 8 7 6 6 6 5 6 6 5 5
3 5 1 5 5 3 4 4 5 4 2 4 5 5 3 6 7 9 8 7 7 7 7 7 7 6 6 5 4 5 6 7 8 8 7 7 6 6 6 6 6 5 5 6
4 6 2 7 7 6 2 0 3 6 5 4 4 4 1 3 5 6 7 8 7 7 7 7 6 6 5 5 5 4 4 6 6 7 7 6 6 6 6 7 6 6 6 5
6 5 6 7 6 3 3 4 0 5 3 3 5 5 2 3 5 5 5 7 8 7 7 7 6 5 5 5 5 4 3 4 5 5 6 7 8 7 7 7 6 6 6 6
6 4 3 4 3 1 1 4 2 1 6 7 7 7 7 7 7 6 6 8 8 7 6 7 6 5 4 4 3 3 3 3 4 5 5 7 7 6 5 5 5 5 5 6
4 4 2 2 2 3 3 4 2 1 1 4 5 3 4 5 5 5 6 8 8 7 6 6 7 7 5 5 4 3 2 2 3 4 5 5 4 4 5 5 4 4 4 4
2 4 3 2 3 4 3 2 1 1 1 5 5 5 4 5 5 5 5 5 5 5 5 5 6 6 6 5 5 4 3 2 2 2 3 3 4 5 5 4 3 4 5 4
5 4 4 2 2 2 7 3 3 4 2 2 5 5 7 8 7 6 6 7 5 4 4 4 4 4 4 4 4 3 3 2 2 2 2 3 4 4 4 3 4 4 4 4
6 7 4 4 3 3 5 4 0 4 2 3 5 6 6 8 8 5 2 5 5 4 4 3 3 4 3 3 3 3 3 2 1 1 2 3 4 4 4 4 5 4 3 4
6 6 5 4 4 5 6 6 1 6 2 3 5 6 5 6 4 2 1 3 3 3 3 2 3 4 3 2 3 3 2 1 1 2 2 2 3 3 5 5 5 4 3 5
4 4 3 4 4 5 5 5 3 4 5 2 3 6 6 4 5 4 3 4 4 4 3 3 3 3 1 1 3 3 1 1 2 2 1 1 2 3 4 4 4 4 4 5
3 2 1 2 2 5 5 3 4 5 3 3 4 5 6 5 4 4 4 4 4 4 3 3 3 2 1 2 3 2 0 2 1 1 1 2 3 3 2 3 4 4 4 5
2 4 4 5 5 5 1 3 3 5 6 4 4 5 7 6 4 4 3 3 3 3 2 2 2 1 1 1 2 2 2 2 0 0 2 3 3 3 3 3 4 4 4 4
3 2 4 2 0 1 3 4 5 5 6 5 5 5 6 4 4 3 2 2 2 2 1 1 2 1 1 2 0 1 2 1 1 1 2 3 3 3 3 2 3 4 4 5
3 2 3 1 1 3 4 3 4 5 5 6 5 5 5 5 3 2 2 1 1 1 0 1 1 1 1 2 2 3 2 1 1 2 3 3 3 3 3 3 3 4 5 5
2 3 4 4 6 4 3 1 3 5 5 4 5 4 3 3 2 2 2 1 2 1 1 1 0 0 2 2 3 3 3 2 1 2 3 3 3 3 3 3 4 5 5 6
Wind_Direction
312 69 242 233 205 196 199 213 238 242 213 162 168 177 187 184 183 180 180 182 182 185 180 171 168 166 164 166 165 165 161 168 161 158 162 161 187 200 202 203 202 205 206 201
3 267 240 230 217 203 209 226 253 274 219 180 181 195 193 188 193 188 186 188 185 179 172 173 169 169 172 171 173 172 173 173 174 175 173 171 173 193 201 210 208 208 204 203
221 245 247 229 244 211 242 218 222 229 325 68 115 122 198 208 202 197 196 192 184 181 179 177 173 173 173 177 180 182 183 177 177 172 155 147 110 58 246 222 217 216 202 201
248 254 257 258 247 220 247 233 203 181 111 253 145 203 248 207 198 199 200 191 186 185 180 180 177 177 179 183 181 179 178 174 174 169 168 177 189 203 218 212 213 225 214 211
255 256 261 258 243 222 231 228 183 185 141 54 337 138 277 193 201 205 194 188 186 184 183 183 181 180 179 178 178 178 175 178 178 178 182 188 203 214 217 211 212 225 233 228
253 260 228 235 254 233 230 37 44 53 73 357 255 153 264 221 206 194 187 185 184 180 179 181 180 175 175 176 179 178 176 184 185 184 187 193 199 204 204 212 216 224 233 239
297 295 274 240 297 327 63 83 38 2 12 259 275 136 244 237 198 176 174 178 178 175 173 172 172 175 176 177 180 180 181 189 189 187 192 196 198 199 206 210 211 212 220 228
227 289 276 259 189 207 175 138 157 192 213 271 339 206 267 267 135 140 146 150 159 170 175 175 177 178 180 182 183 182 186 194 194 193 198 200 197 201 209 207 204 210 215 223
182 250 287 277 208 149 158 184 171 143 137 96 298 302 340 42 87 104 120 128 147 158 169 176 175 178 181 184 187 190 189 194 196 198 198 199 199 202 208 209 209 218 224 229
167 218 283 294 34 17 163 167 89 109 142 195 292 274 213 198 144 131 129 138 146 147 149 157 166 175 183 183 185 190 191 194 194 193 199 206 206 208 207 204 215 223 226 231
139 156 304 358 131 234 346 39 97 116 149 153 205 268 220 190 166 154 149 144 142 144 151 156 159 160 156 156 170 179 188 191 190 192 198 203 202 207 206 212 222 225 227 226
147 123 269 277 271 216 159 160 134 142 220 156 158 258 264 172 156 146 147 145 139 138 144 152 154 146 145 149 159 181 187 190 194 190 189 200 202 202 206 219 228 228 230 231
133 110 64 339 341 356 17 2 131 130 119 135 150 241 291 123 124 138 144 138 134 130 124 125 127 135 150 161 170 178 181 193 189 183 187 201 211 210 215 225 227 226 230 237
117 111 156 190 222 247 313 315 12 107 135 184 198 198 229 154 152 152 146 140 139 137 135 131 137 146 158 166 173 173 192 192 184 184 192 207 218 221 222 225 228 229 227 232
104 126 163 191 210 140 325 306 312 188 185 180 201 183 199 186 171 155 140 134 123 129 133 137 150 161 161 160 172 182 200 194 187 189 207 221 225 223 217 219 224 229 228 233
74 122 89 5 4 31 358 342 345 332 160 150 140 169 213 168 131 120 126 133 132 137 140 145 150 152 159 169 176 177 191 195 185 198 220 228 225 216 210 214 217 221 227 231
94 117 108 264 315 38 337 265 163 59 151 150 166 201 160 120 123 139 140 133 136 140 130 129 151 159 164 171 169 169 180 174 175 213 229 219 210 209 215 216 213 217 220 221
141 120 132 148 62 207 245 267 118 107 60 81 131 137 142 140 132 122 130 133 131 134 132 133 141 158 171 169 164 165 149 143 162 202 222 218 210 210 210 214 220 220 215 220
146 141 131 132 168 248 295 312 81 121 34 34 111 118 126 124 89 61 98 123 134 139 143 148 144 139 143 151 162 145 139 140 149 202 228 229 216 214 211 219 230 229 224 237
66 104 123 136 159 214 246 284 243 106 60 342 104 120 120 103 103 220 200 116 115 110 114 114 99 95 118 150 138 124 130 140 230 247 250 263 237 226 225 225 228 233 229 236
27 42 108 153 186 237 261 292 68 130 210 243 124 129 127 138 177 191 134 105 109 107 107 103 86 80 97 122 106 100 91 238 248 248 271 303 260 241 239 234 229 230 233 236
157 137 161 128 158 242 297 41 123 187 180 121 102 111 114 110 102 100 102 106 102 98 100 105 98 71 47 88 102 90 312 267 289 343 346 331 307 278 275 248 250 249 243 245
137 179 173 173 203 241 315 114 150 142 113 100 97 103 107 98 92 85 82 93 98 100 102 109 115 84 11 55 117 127 264 256 234 301 295 297 305 297 286 262 260 271 261 253
326 47 89 68 23 52 65 74 66 91 110 114 110 108 101 110 124 118 123 110 97 97 106 104 99 72 343 334 338 227 252 248 205 252 276 282 288 293 296 282 253 247 249 250
260 40 67 64 265 36 28 62 85 75 81 86 82 90 106 110 110 116 137 149 124 97 98 112 127 145 297 318 309 298 295 290 287 280 281 285 283 283 288 286 271 256 247 239
274 174 158 211 224 182 225 242 100 88 80 86 89 73 72 110 128 114 128 132 112 91 65 48 36 285 284 296 304 303 302 288 283 293 285 278 279 279 274 279 299 302 279 278
Height
1504 1511 1518 1513 1510 1512 1515 1519 1522 1515 1508 1513 1517 1519 1517 1519 1520 1522 1524 1525 1527 1528 1531 1534 1536 1539 1541 1544 1546 1548 1550 1552 1554 1555 1556 1558 1559 1560 1561 1561 1562 1563 1564 1564
1511 1514 1505 1502 1503 1507 1512 1519 1520 1513 1506 1511 1517 1517 1514 1515 1516 1516 1518 1521 1523 1527 1530 1532 1534 1537 1539 1541 1544 1546 1548 1550 1552 1554 1556 1557 1558 1559 1560 1561 1561 1562 1562 1563
1512 1505 1498 1501 1504 1509 1512 1515 1516 1515 1510 1510 1516 1524 1519 1515 1515 1517 1517 1518 1520 1522 1525 1528 1531 1534 1537 1539 1542 1544 1546 1548 1550 1552 1554 1556 1557 1558 1558 1559 1560 1561 1561 1562
1504 1497 1497 1500 1503 1505 1514 1502 1503 1508 1518 1527 1520 1540 1524 1516 1515 1515 1515 1517 1518 1520 1523 1525 1528 1531 1534 1537 1540 1542 1545 1546 1549 1551 1552 1553 1554 1555 1556 1557 1558 1559 1560 1560
1504 1496 1498 1501 1498 1497 1501 1494 1499 1505 1516 1526 1523 1535 1529 1517 1517 1512 1511 1513 1515 1517 1520 1522 1525 1528 1532 1535 1538 1540 1543 1545 1547 1548 1550 1551 1552 1553 1555 1556 1556 1557 1558 1559
1496 1491 1492 1492 1489 1490 1491 1497 1504 1513 1525 1540 1527 1533 1533 1519 1512 1508 1508 1510 1512 1514 1518 1521 1524 1527 1530 1533 1536 1538 1540 1542 1544 1546 1547 1549 1550 1551 1552 1553 1554 1555 1555 1556
1502 1494 1488 1487 1492 1491 1495 1517 1538 1542 1550 1545 1525 1528 1528 1507 1502 1503 1505 1507 1509 1512 1515 1518 1522 1525 1527 1530 1533 1535 1537 1539 1541 1543 1545 1546 1547 1548 1549 1550 1551 1552 1553 1553
1514 1513 1491 1486 1491 1497 1499 1513 1538 1550 1554 1545 1528 1532 1519 1502 1500 1502 1503 1504 1507 1511 1514 1516 1518 1521 1524 1527 1530 1532 1534 1536 1539 1540 1542 1543 1545 1546 1547 1548 1548 1549 1550 1551
1511 1509 1487 1483 1483 1489 1499 1508 1511 1531 1538 1546 1539 1526 1513 1503 1503 1504 1505 1505 1506 1509 1512 1515 1517 1519 1522 1524 1527 1530 1531 1534 1536 1538 1539 1541 1542 1543 1544 1545 1546 1546 1547 1548
1495 1505 1492 1484 1483 1487 1491 1497 1516 1530 1546 1552 1542 1534 1528 1514 1509 1506 1506 1506 1506 1508 1511 1514 1516 1519 1521 1523 1525 1527 1530 1531 1533 1535 1536 1537 1539 1540 1541 1542 1543 1543 1544 1544
1489 1504 1501 1493 1495 1498 1497 1501 1512 1527 1532 1548 1552 1540 1509 1508 1506 1506 1506 1506 1507 1509 1511 1513 1515 1517 1519 1521 1523 1525 1527 1529 1531 1532 1534 1535 1536 1537 1537 1538 1539 1540 1541 1541
1489 1503 1512 1501 1489 1486 1491 1499 1510 1526 1531 1536 1543 1536 1503 1502 1501 1502 1504 1505 1507 1508 1510 1512 1514 1516 1518 1519 1522 1523 1525 1527 1528 1529 1531 1532 1532 1533 1533 1534 1535 1536 1536 1537
1487 1504 1521 1518 1508 1496 1496 1496 1501 1512 1524 1534 1541 1532 1503 1502 1502 1502 1504 1504 1507 1509 1510 1512 1514 1516 1517 1519 1521 1522 1523 1524 1525 1527 1527 1528 1528 1529 1529 1530 1531 1532 1532 1533
1480 1501 1514 1522 1516 1504 1502 1498 1497 1508 1524 1528 1525 1520 1509 1505 1503 1503 1504 1504 1506 1508 1510 1511 1513 1515 1517 1518 1520 1521 1521 1522 1523 1524 1525 1525 1525 1525 1525 1526 1527 1527 1528 1528
1482 1500 1500 1500 1496 1494 1497 1497 1495 1500 1506 1516 1514 1512 1507 1503 1502 1503 1503 1504 1506 1509 1510 1511 1512 1514 1516 1517 1519 1519 1520 1520 1521 1521 1521 1521 1521 1521 1522 1522 1522 1523 1523 1524
1485 1496 1497 1499 1493 1494 1496 1494 1494 1495 1497 1502 1505 1508 1500 1499 1501 1502 1503 1505 1506 1508 1509 1510 1511 1512 1514 1515 1516 1517 1517 1517 1518 1518 1518 1518 1518 1518 1518 1518 1518 1518 1518 1519
1490 1496 1506 1511 1499 1498 1508 1497 1495 1497 1496 1498 1505 1503 1499 1500 1501 1502 1503 1505 1506 1507 1507 1508 1510 1511 1512 1513 1514 1513 1514 1515 1514 1514 1514 1514 1513 1514 1514 1514 1514 1514 1514 1514
1488 1497 1508 1513 1508 1520 1509 1491 1490 1494 1496 1494 1495 1496 1497 1499 1501 1502 1503 1504 1506 1507 1508 1509 1509 1510 1511 1511 1512 1512 1512 1512 1512 1512 1511 1511 1511 1511 1511 1510 1510 1509 1510 1510
1479 1492 1507 1516 1519 1514 1501 1492 1491 1496 1502 1497 1496 1497 1498 1499 1501 1505 1505 1504 1505 1506 1507 1508 1508 1509 1509 1510 1510 1510 1510 1510 1510 1509 1508 1508 1507 1507 1506 1506 1506 1505 1505 1505
1481 1487 1502 1512 1516 1521 1506 1490 1487 1492 1506 1499 1496 1497 1498 1498 1507 1507 1505 1505 1505 1506 1507 1507 1507 1507 1508 1508 1509 1508 1508 1508 1507 1507 1506 1505 1504 1504 1503 1502 1502 1502 1501 1501
1494 1497 1504 1510 1513 1509 1494 1488 1487 1506 1509 1498 1496 1496 1497 1498 1501 1503 1503 1504 1505 1505 1506 1506 1506 1506 1506 1506 1506 1506 1506 1506 1505 1504 1503 1502 1501 1500 1500 1499 1498 1498 1498 1498
1499 1504 1507 1511 1515 1513 1491 1489 1495 1499 1495 1495 1495 1496 1497 1499 1500 1501 1502 1503 1503 1504 1504 1505 1505 1505 1505 1505 1504 1504 1503 1503 1502 1501 1500 1499 1498 1497 1496 1495 1494 1493 1494 1494
1496 1497 1500 1503 1506 1496 1491 1491 1492 1492 1493 1494 1495 1496 1497 1498 1499 1501 1502 1502 1502 1503 1503 1504 1503 1503 1503 1503 1502 1501 1501 1501 1500 1499 1497 1496 1495 1494 1493 1491 1491 1490 1490 1489
1493 1490 1494 1498 1497 1494 1492 1492 1492 1492 1493 1494 1495 1496 1496 1498 1498 1499 1501 1501 1501 1501 1502 1502 1501 1501 1500 1500 1500 1499 1498 1498 1496 1495 1494 1492 1491 1490 1489 1487 1487 1487 1486 1485
1492 1491 1495 1498 1496 1494 1493 1493 1493 1494 1494 1494 1495 1496 1496 1497 1498 1498 1499 1500 1499 1499 1500 1500 1499 1499 1498 1498 1497 1496 1495 1494 1492 1491 1490 1489 1487 1486 1484 1483 1482 1481 1481 1481
1490 1492 1495 1497 1493 1494 1494 1493 1493 1493 1494 1494 1494 1495 1496 1496 1497 1497 1497 1498 1498 1497 1498 1498 1497 1496 1495 1495 1494 1492 1491 1490 1489 1487 1486 1484 1483 1481 1480 1479 1478 1477 1476 1475